Time,TemperatureF,DewpointF,PressureIn,WindDirection,WindDirectionDegrees,WindSpeedMPH,WindSpeedGustMPH,Humidity,HourlyPrecipIn,Conditions,Clouds,dailyrainin,SoftwareType,DateUTC
2013-06-17 00:02:00,81.0,75.0,30.01,SSW,207,3.0,5.0,83,0.00,,,0.00,,2013-06-17 05:02:00,
2013-06-17 00:12:00,80.0,74.0,30.01,South,190,1.0,6.0,83,0.00,,,0.00,,2013-06-17 05:12:00,
2013-06-17 00:22:00,80.0,74.0,30.01,South,184,2.0,6.0,83,0.00,,,0.00,,2013-06-17 05:22:00,
2013-06-17 00:33:00,80.0,75.0,30.00,SSW,204,1.0,2.0,84,0.00,,,0.00,,2013-06-17 05:33:00,
2013-06-17 00:44:00,80.0,75.0,30.00,SSW,192,2.0,5.0,85,0.00,,,0.00,,2013-06-17 05:44:00,
2013-06-17 00:53:00,80.0,75.0,30.00,South,187,1.0,4.0,85,0.00,,,0.00,,2013-06-17 05:53:00,
2013-06-17 01:02:00,80.0,75.0,30.00,South,190,1.0,6.0,86,0.00,,,0.00,,2013-06-17 06:02:00,
2013-06-17 01:12:00,79.0,74.0,30.00,WSW,247,1.0,6.0,86,0.00,,,0.00,,2013-06-17 06:12:00,
2013-06-17 01:22:00,79.0,74.0,30.00,SSW,211,327.0,327.0,85,0.00,,,0.00,,2013-06-17 06:22:00,
2013-06-17 01:33:00,80.0,75.0,30.00,SSW,211,0.0,2.0,85,0.00,,,0.00,,2013-06-17 06:33:00,
2013-06-17 01:43:00,80.0,75.0,30.00,SSW,211,0.0,1.0,85,0.00,,,0.00,,2013-06-17 06:43:00,
2013-06-17 01:53:00,80.0,75.0,30.00,SSW,209,0.0,2.0,85,0.00,,,0.00,,2013-06-17 06:53:00,
2013-06-17 02:02:00,80.0,75.0,30.00,SSW,197,0.0,5.0,85,0.00,,,0.00,,2013-06-17 07:02:00,
2013-06-17 02:12:00,80.0,75.0,30.00,SSW,197,0.0,1.0,84,0.00,,,0.00,,2013-06-17 07:12:00,
2013-06-17 02:22:00,79.0,74.0,30.00,SSW,197,0.0,0.0,85,0.00,,,0.00,,2013-06-17 07:22:00,
2013-06-17 02:33:00,79.0,74.0,30.00,SSW,197,0.0,0.0,85,0.00,,,0.00,,2013-06-17 07:33:00,
2013-06-17 02:43:00,79.0,74.0,30.00,SSW,197,0.0,0.0,86,0.00,,,0.00,,2013-06-17 07:43:00,
2013-06-17 02:53:00,79.0,74.0,29.99,SSW,197,0.0,0.0,86,0.00,,,0.00,,2013-06-17 07:53:00,
2013-06-17 03:02:00,78.0,74.0,29.99,SSW,197,0.0,0.0,87,0.00,,,0.00,,2013-06-17 08:02:00,
2013-06-17 03:11:00,78.0,74.0,29.99,SSW,197,0.0,0.0,87,0.00,,,0.00,,2013-06-17 08:11:00,
2013-06-17 03:22:00,78.0,74.0,29.99,SSW,197,0.0,0.0,88,0.00,,,0.00,,2013-06-17 08:22:00,
2013-06-17 03:34:00,77.0,73.0,29.99,SSW,197,0.0,0.0,88,0.00,,,0.00,,2013-06-17 08:34:00,
2013-06-17 03:43:00,77.0,74.0,29.98,SSW,197,0.0,0.0,89,0.00,,,0.00,,2013-06-17 08:43:00,
2013-06-17 03:53:00,77.0,74.0,29.98,SSW,197,0.0,0.0,90,0.00,,,0.00,,2013-06-17 08:53:00,
2013-06-17 04:02:00,77.0,74.0,29.98,SSW,197,0.0,0.0,90,0.00,,,0.00,,2013-06-17 09:02:00,
2013-06-17 04:11:00,77.0,74.0,29.97,SSW,197,0.0,0.0,91,0.00,,,0.00,,2013-06-17 09:11:00,
2013-06-17 04:22:00,77.0,74.0,29.97,SSW,197,0.0,0.0,91,0.00,,,0.00,,2013-06-17 09:22:00,
2013-06-17 04:34:00,77.0,74.0,29.97,SSW,197,0.0,0.0,91,0.00,,,0.00,,2013-06-17 09:34:00,
2013-06-17 04:43:00,77.0,74.0,29.97,SSW,197,0.0,0.0,90,0.00,,,0.00,,2013-06-17 09:43:00,
2013-06-17 04:52:00,77.0,74.0,29.96,SSW,197,0.0,0.0,91,0.00,,,0.00,,2013-06-17 09:52:00,
2013-06-17 05:02:00,77.0,74.0,29.96,SSW,197,0.0,0.0,91,0.00,,,0.00,,2013-06-17 10:02:00,
2013-06-17 05:12:00,77.0,74.0,29.96,SSW,197,0.0,0.0,91,0.00,,,0.00,,2013-06-17 10:12:00,
2013-06-17 05:22:00,77.0,74.0,29.96,SSW,197,0.0,0.0,91,0.00,,,0.00,,2013-06-17 10:22:00,
2013-06-17 05:33:00,77.0,74.0,29.96,SSW,197,0.0,0.0,91,0.00,,,0.00,,2013-06-17 10:33:00,
2013-06-17 05:43:00,77.0,74.0,29.96,SSW,197,0.0,0.0,91,0.00,,,0.00,,2013-06-17 10:43:00,
2013-06-17 05:53:00,77.0,74.0,29.97,SSW,197,0.0,0.0,91,0.00,,,0.00,,2013-06-17 10:53:00,
2013-06-17 06:02:00,76.0,74.0,29.97,SSW,197,0.0,0.0,92,0.00,,,0.00,,2013-06-17 11:02:00,
2013-06-17 06:12:00,76.0,74.0,29.97,SSW,197,0.0,0.0,92,0.00,,,0.00,,2013-06-17 11:12:00,
2013-06-17 06:23:00,76.0,73.0,29.98,SSW,197,0.0,0.0,91,0.00,,,0.00,,2013-06-17 11:23:00,
2013-06-17 06:33:00,76.0,73.0,29.98,SSW,197,0.0,0.0,91,0.00,,,0.00,,2013-06-17 11:33:00,
2013-06-17 06:43:00,76.0,74.0,29.98,SSW,197,0.0,0.0,92,0.00,,,0.00,,2013-06-17 11:43:00,
2013-06-17 06:53:00,76.0,74.0,29.98,SSW,197,0.0,0.0,93,0.00,,,0.00,,2013-06-17 11:53:00,
2013-06-17 07:02:00,76.0,74.0,29.98,SSW,197,0.0,0.0,93,0.00,,,0.00,,2013-06-17 12:02:00,
2013-06-17 07:12:00,77.0,75.0,29.98,SSW,197,0.0,0.0,93,0.00,,,0.00,,2013-06-17 12:12:00,
2013-06-17 07:22:00,77.0,74.0,29.99,SSW,197,0.0,0.0,92,0.00,,,0.00,,2013-06-17 12:22:00,
2013-06-17 07:33:00,78.0,75.0,29.99,SSW,197,0.0,0.0,92,0.00,,,0.00,,2013-06-17 12:33:00,
2013-06-17 07:43:00,79.0,76.0,29.99,SSW,197,327.0,327.0,90,0.00,,,0.00,,2013-06-17 12:43:00,
2013-06-17 07:53:00,79.0,75.0,29.99,SSW,197,0.0,0.0,89,0.00,,,0.00,,2013-06-17 12:53:00,
2013-06-17 08:01:00,80.0,76.0,29.99,SSW,197,0.0,0.0,89,0.00,,,0.00,,2013-06-17 13:01:00,
2013-06-17 08:12:00,81.0,76.0,29.99,West,267,1.0,2.0,85,0.00,,,0.00,,2013-06-17 13:12:00,
2013-06-17 08:22:00,82.0,77.0,29.99,West,267,0.0,4.0,85,0.00,,,0.00,,2013-06-17 13:22:00,
2013-06-17 08:32:00,83.0,77.0,30.00,WSW,257,327.0,327.0,83,0.00,,,0.00,,2013-06-17 13:32:00,
2013-06-17 08:43:00,84.0,78.0,29.99,NNW,341,2.0,8.0,81,0.00,,,0.00,,2013-06-17 13:43:00,
2013-06-17 08:52:00,85.0,78.0,30.00,SW,232,0.0,4.0,79,0.00,,,0.00,,2013-06-17 13:52:00,
2013-06-17 09:02:00,85.0,77.0,30.00,SW,219,4.0,9.0,78,0.00,,,0.00,,2013-06-17 14:02:00,
2013-06-17 09:12:00,84.0,76.0,30.00,SW,225,1.0,8.0,78,0.00,,,0.00,,2013-06-17 14:12:00,
2013-06-17 09:22:00,84.0,76.0,30.00,SW,225,3.0,7.0,78,0.00,,,0.00,,2013-06-17 14:22:00,
2013-06-17 09:34:00,84.0,76.0,30.01,SSW,195,3.0,9.0,78,0.00,,,0.00,,2013-06-17 14:34:00,
2013-06-17 09:43:00,84.0,77.0,30.01,SW,218,0.0,8.0,79,0.00,,,0.00,,2013-06-17 14:43:00,
2013-06-17 09:53:00,84.0,77.0,30.01,SW,218,0.0,8.0,79,0.00,,,0.00,,2013-06-17 14:53:00,
2013-06-17 10:01:00,84.0,76.0,30.01,SSW,211,2.0,6.0,78,0.00,,,0.00,,2013-06-17 15:01:00,
2013-06-17 10:12:00,85.0,77.0,30.01,WSW,240,4.0,8.0,76,0.00,,,0.00,,2013-06-17 15:12:00,
2013-06-17 10:22:00,86.0,77.0,30.01,SW,229,6.0,13.0,74,0.00,,,0.00,,2013-06-17 15:22:00,
2013-06-17 10:33:00,86.0,75.0,30.01,SW,234,5.0,9.0,70,0.00,,,0.00,,2013-06-17 15:33:00,
2013-06-17 10:43:00,87.0,74.0,30.01,West,276,5.0,10.0,66,0.00,,,0.00,,2013-06-17 15:43:00,
2013-06-17 10:52:00,88.0,75.0,30.01,SSW,201,7.0,15.0,65,0.00,,,0.00,,2013-06-17 15:52:00,
2013-06-17 11:02:00,88.0,74.0,30.01,SSW,203,4.0,14.0,64,0.00,,,0.00,,2013-06-17 16:02:00,
2013-06-17 11:12:00,88.0,74.0,30.01,SW,233,6.0,12.0,63,0.00,,,0.00,,2013-06-17 16:12:00,
2013-06-17 11:22:00,88.0,75.0,30.02,SW,223,6.0,10.0,66,0.00,,,0.00,,2013-06-17 16:22:00,
2013-06-17 11:33:00,87.0,74.0,30.03,SW,221,4.0,11.0,66,0.00,,,0.00,,2013-06-17 16:33:00,
2013-06-17 11:43:00,87.0,75.0,30.02,WSW,250,5.0,12.0,67,0.00,,,0.00,,2013-06-17 16:43:00,
2013-06-17 11:53:00,87.0,75.0,30.02,WSW,252,7.0,11.0,68,0.00,,,0.00,,2013-06-17 16:53:00,
2013-06-17 12:02:00,87.0,75.0,30.02,SSW,202,5.0,14.0,67,0.00,,,0.00,,2013-06-17 17:02:00,
2013-06-17 12:12:00,88.0,75.0,30.02,SW,225,6.0,12.0,65,0.00,,,0.00,,2013-06-17 17:12:00,
2013-06-17 12:22:00,89.0,76.0,30.02,South,178,5.0,12.0,65,0.00,,,0.00,,2013-06-17 17:22:00,
2013-06-17 12:33:00,90.0,74.0,30.02,SSW,196,7.0,11.0,60,0.00,,,0.00,,2013-06-17 17:33:00,
2013-06-17 12:43:00,90.0,74.0,30.02,West,279,6.0,14.0,59,0.00,,,0.00,,2013-06-17 17:43:00,
2013-06-17 12:52:00,90.0,74.0,30.02,West,279,6.0,14.0,59,0.00,,,0.00,,2013-06-17 17:52:00,
2013-06-17 13:02:00,89.0,74.0,30.01,SSW,209,3.0,11.0,61,0.00,,,0.00,,2013-06-17 18:02:00,
2013-06-17 13:12:00,89.0,73.0,30.01,South,180,6.0,11.0,60,0.00,,,0.00,,2013-06-17 18:12:00,
2013-06-17 13:23:00,89.0,73.0,30.01,WSW,245,7.0,13.0,59,0.00,,,0.00,,2013-06-17 18:23:00,
2013-06-17 13:33:00,90.0,73.0,30.00,SSW,196,5.0,15.0,58,0.00,,,0.00,,2013-06-17 18:33:00,
2013-06-17 13:43:00,91.0,74.0,30.00,West,259,5.0,12.0,57,0.00,,,0.00,,2013-06-17 18:43:00,
2013-06-17 13:53:00,92.0,73.0,30.00,SW,217,9.0,13.0,55,0.00,,,0.00,,2013-06-17 18:53:00,
2013-06-17 14:02:00,91.0,74.0,29.98,SW,222,5.0,15.0,57,0.00,,,0.00,,2013-06-17 19:02:00,
2013-06-17 14:11:00,91.0,73.0,29.98,South,191,6.0,15.0,55,0.00,,,0.00,,2013-06-17 19:11:00,
2013-06-17 14:22:00,91.0,73.0,29.98,South,182,327.0,327.0,56,0.00,,,0.00,,2013-06-17 19:22:00,
2013-06-17 14:33:00,90.0,73.0,29.97,West,275,9.0,18.0,57,0.00,,,0.00,,2013-06-17 19:33:00,
2013-06-17 14:43:00,90.0,73.0,29.96,West,270,5.0,14.0,57,0.00,,,0.00,,2013-06-17 19:43:00,
2013-06-17 14:53:00,91.0,73.0,29.96,SSE,167,4.0,12.0,56,0.00,,,0.00,,2013-06-17 19:53:00,
2013-06-17 15:02:00,90.0,73.0,29.96,South,171,7.0,19.0,57,0.00,,,0.00,,2013-06-17 20:02:00,
2013-06-17 15:11:00,90.0,74.0,29.95,South,170,6.0,12.0,59,0.00,,,0.00,,2013-06-17 20:11:00,
2013-06-17 15:22:00,91.0,75.0,29.95,SW,221,7.0,21.0,59,0.00,,,0.00,,2013-06-17 20:22:00,
2013-06-17 15:34:00,91.0,73.0,29.95,SSW,197,8.0,13.0,56,0.00,,,0.00,,2013-06-17 20:34:00,
2013-06-17 15:43:00,90.0,74.0,29.94,SW,220,4.0,13.0,59,0.00,,,0.00,,2013-06-17 20:43:00,
2013-06-17 15:52:00,90.0,74.0,29.94,SW,220,4.0,13.0,59,0.00,,,0.00,,2013-06-17 20:52:00,
2013-06-17 16:01:00,91.0,75.0,29.94,SE,130,3.0,14.0,59,0.00,,,0.00,,2013-06-17 21:01:00,
2013-06-17 16:12:00,91.0,75.0,29.93,WSW,257,7.0,14.0,59,0.00,,,0.00,,2013-06-17 21:12:00,
2013-06-17 16:22:00,90.0,74.0,29.93,South,189,6.0,14.0,59,0.00,,,0.00,,2013-06-17 21:22:00,
2013-06-17 16:33:00,90.0,74.0,29.93,South,169,7.0,15.0,60,0.00,,,0.00,,2013-06-17 21:33:00,
2013-06-17 16:43:00,89.0,73.0,29.93,South,186,12.0,21.0,60,0.00,,,0.00,,2013-06-17 21:43:00,
2013-06-17 16:52:00,90.0,74.0,29.93,SSE,167,6.0,15.0,60,0.00,,,0.00,,2013-06-17 21:52:00,
2013-06-17 17:01:00,90.0,74.0,29.93,SSW,194,4.0,15.0,59,0.00,,,0.00,,2013-06-17 22:01:00,
2013-06-17 17:11:00,90.0,73.0,29.93,SW,226,9.0,19.0,58,0.00,,,0.00,,2013-06-17 22:11:00,
2013-06-17 17:22:00,90.0,73.0,29.93,South,180,3.0,15.0,58,0.00,,,0.00,,2013-06-17 22:22:00,
2013-06-17 17:33:00,89.0,73.0,29.93,SSW,196,10.0,19.0,60,0.00,,,0.00,,2013-06-17 22:33:00,
2013-06-17 17:43:00,89.0,75.0,29.93,South,179,4.0,20.0,63,0.00,,,0.00,,2013-06-17 22:43:00,
2013-06-17 17:53:00,90.0,74.0,29.93,South,170,7.0,13.0,59,0.00,,,0.00,,2013-06-17 22:53:00,
2013-06-17 18:02:00,90.0,74.0,29.92,South,171,3.0,19.0,60,0.00,,,0.00,,2013-06-17 23:02:00,
2013-06-17 18:11:00,89.0,74.0,29.92,South,181,6.0,13.0,61,0.00,,,0.00,,2013-06-17 23:11:00,
2013-06-17 18:22:00,89.0,74.0,29.92,South,184,6.0,13.0,62,0.00,,,0.00,,2013-06-17 23:22:00,
2013-06-17 18:32:00,89.0,75.0,29.93,SSW,203,5.0,14.0,63,0.00,,,0.00,,2013-06-17 23:32:00,
2013-06-17 18:42:00,89.0,75.0,29.92,WNW,291,4.0,12.0,63,0.00,,,0.00,,2013-06-17 23:42:00,
2013-06-17 18:53:00,89.0,74.0,29.92,SSW,199,5.0,9.0,61,0.00,,,0.00,,2013-06-17 23:53:00,
2013-06-17 19:01:00,88.0,73.0,29.93,South,170,3.0,10.0,62,0.00,,,0.00,,2013-06-18 00:01:00,
2013-06-17 19:12:00,87.0,72.0,29.93,SW,215,4.0,15.0,62,0.00,,,0.00,,2013-06-18 00:12:00,
2013-06-17 19:22:00,87.0,73.0,29.93,South,191,5.0,14.0,63,0.00,,,0.00,,2013-06-18 00:22:00,
2013-06-17 19:33:00,87.0,73.0,29.93,SW,236,6.0,12.0,64,0.00,,,0.00,,2013-06-18 00:33:00,
2013-06-17 19:43:00,87.0,74.0,29.93,SW,218,2.0,11.0,66,0.00,,,0.00,,2013-06-18 00:43:00,
2013-06-17 19:52:00,87.0,74.0,29.94,SSW,196,2.0,13.0,65,0.00,,,0.00,,2013-06-18 00:52:00,
2013-06-17 20:01:00,86.0,73.0,29.93,SSW,207,5.0,11.0,66,0.00,,,0.00,,2013-06-18 01:01:00,
2013-06-17 20:11:00,86.0,74.0,29.93,SE,138,3.0,9.0,68,0.00,,,0.00,,2013-06-18 01:11:00,
2013-06-17 20:23:00,85.0,74.0,29.93,WSW,241,6.0,10.0,69,0.00,,,0.00,,2013-06-18 01:23:00,
2013-06-17 20:34:00,85.0,74.0,29.93,South,186,7.0,18.0,70,0.00,,,0.00,,2013-06-18 01:34:00,
2013-06-17 20:44:00,84.0,74.0,29.93,SSW,211,5.0,15.0,72,0.00,,,0.00,,2013-06-18 01:44:00,
2013-06-17 20:53:00,84.0,74.0,29.93,SSW,211,5.0,15.0,72,0.00,,,0.00,,2013-06-18 01:53:00,
2013-06-17 21:02:00,84.0,75.0,29.93,South,183,4.0,8.0,74,0.00,,,0.00,,2013-06-18 02:02:00,
2013-06-17 21:11:00,83.0,74.0,29.93,South,190,1.0,7.0,74,0.00,,,0.00,,2013-06-18 02:11:00,
2013-06-17 21:22:00,83.0,75.0,29.93,South,179,3.0,8.0,76,0.00,,,0.00,,2013-06-18 02:22:00,
2013-06-17 21:34:00,83.0,75.0,29.93,SSW,212,3.0,8.0,76,0.00,,,0.00,,2013-06-18 02:34:00,
2013-06-17 21:43:00,83.0,75.0,29.93,SSW,212,3.0,8.0,76,0.00,,,0.00,,2013-06-18 02:43:00,
2013-06-17 21:53:00,82.0,75.0,29.94,SSW,196,3.0,7.0,79,0.00,,,0.00,,2013-06-18 02:53:00,
2013-06-17 22:02:00,82.0,75.0,29.94,SSW,196,3.0,7.0,79,0.00,,,0.00,,2013-06-18 03:02:00,
2013-06-17 22:12:00,82.0,75.0,29.94,SSW,192,5.0,11.0,79,0.00,,,0.00,,2013-06-18 03:12:00,
2013-06-17 22:23:00,82.0,75.0,29.94,SSE,166,4.0,9.0,79,0.00,,,0.00,,2013-06-18 03:23:00,
2013-06-17 22:34:00,82.0,75.0,29.95,SSW,195,3.0,8.0,80,0.00,,,0.00,,2013-06-18 03:34:00,
2013-06-17 22:43:00,82.0,76.0,29.95,South,180,1.0,6.0,81,0.00,,,0.00,,2013-06-18 03:43:00,
2013-06-17 22:53:00,81.0,75.0,29.95,South,179,4.0,8.0,81,0.00,,,0.00,,2013-06-18 03:53:00,
2013-06-17 23:02:00,81.0,75.0,29.94,South,186,2.0,6.0,81,0.00,,,0.00,,2013-06-18 04:02:00,
2013-06-17 23:12:00,81.0,75.0,29.95,South,184,6.0,11.0,81,0.00,,,0.00,,2013-06-18 04:12:00,
2013-06-17 23:23:00,81.0,75.0,29.95,South,186,3.0,7.0,82,0.00,,,0.00,,2013-06-18 04:23:00,
2013-06-17 23:34:00,81.0,75.0,29.95,South,186,3.0,7.0,82,0.00,,,0.00,,2013-06-18 04:34:00,
2013-06-17 23:43:00,81.0,75.0,29.96,SSW,193,1.0,7.0,82,0.00,,,0.00,,2013-06-18 04:43:00,
2013-06-17 23:53:00,81.0,75.0,29.96,South,189,2.0,6.0,82,0.00,,,0.00,,2013-06-18 04:53:00,